Regional Weather Roundup
Issued by NWS

Home | Current Version | Previous Version | Graphics & Text | Print | Product List | Glossary On
Versions: 1 2 3 4 5 6 7 8 9 10 11 12 13 14 15 16 17 18 19 20 21 22 23 24 25 26 27 28 29 30 31 32 33 34 35 36 37 38 39 40 41 42 43 44 45 46 47 48 49 50
809
ASUS44 KLIX 220805
RWRLA
LOUISIANA WEATHER ROUNDUP
NATIONAL WEATHER SERVICE NEW ORLEANS LA
200 AM CST SAT NOV 22 2014

NOTE: "FAIR" INDICATES FEW OR NO CLOUDS BELOW 12,000 FEET WITH NO
      SIGNIFICANT WEATHER AND/OR OBSTRUCTIONS TO VISIBILITY.
      SKY/WX - SKY CONDITION AND SIGNIFICANT WEATHER.
      TMP - AIR TEMPERATURE.    DP   - DEWPOINT TEMPERATURE.
      RH  - RELATIVE HUMIDITY.  PRES - PRESSURE.
      HX  - HEAT INDEX.         WCI  - WIND CHILL INDEX.

*  THESE STATIONS ARE NOT NWS OR FAA STATIONS AND ARE NOT UNDER
   NWS QUALITY CONTROL.

LAZ040-048-061>063-065-066-069-220900-
SOUTHEAST LOUISIANA

CITY           SKY/WX    TMP DP  RH WIND       PRES   REMARKS
N.O. AUDUBON     N/A     61  53  74 MISG        N/A
N.O. INTL ARPT CLEAR     55  50  83 E5        30.22F
N.O. LAKEFRONT CLEAR     56  52  86 E10       30.23F
N.O. DOWNTOWN* FAIR      59  48  67 N7        30.23S
SLIDELL        CLEAR     51  47  86 NE3       30.24S
BATON ROUGE    CLEAR     51  49  92 NE5       30.23F
BOOTHVILLE     CLEAR     61  57  87 E6        30.22S
BELLE CHASSE   CLEAR     57  49  74 E7        30.22F
BOGALUSA*        N/A     45  41  87 CALM      30.27F
NEW ROADS*     PTSUNNY   54  51  89 E5        30.23S
GONZALES*      FAIR      52  52 100 CALM      30.22F
HAMMOND*       CLEAR     54  48  82 CALM      30.25F
HOUMA*         CLEAR     51  49  93 CALM      30.20F
PORT FOURCHON* PTSUNNY   66  59  77 E12       30.23S

$$

LAZ041-044-053-054-220900-
SOUTHWEST LOUISIANA

CITY           SKY/WX    TMP DP  RH WIND       PRES   REMARKS
LAKE CHARLES   CLEAR     56  50  80 E7        30.19S
LAFAYETTE      CLEAR     55  50  83 CALM      30.22F
PATTERSON      CLEAR     54  48  82 NE7       30.22F
SALT POINT       N/A     54  50  86 CALM      30.19F
NEW IBERIA     CLEAR     55  50  83 E6        30.22S
CHENAULT AIRPK CLEAR     56  50  80 E6        30.20F

$$

LAZ027-028-220900-
CENTRAL LOUISIANA

CITY           SKY/WX    TMP DP  RH WIND       PRES   REMARKS
FORT POLK      CLOUDY    58  51  77 E6        30.19F
ALEXANDRIA INT MOCLDY    59  51  75 E8        30.20F
ALEXANDRIA     CLOUDY    59  51  75 CALM      30.23F

$$

LAZ001-002-220900-
NORTHWEST LOUISIANA

CITY           SKY/WX    TMP DP  RH WIND       PRES   REMARKS
SHREVEPORT     CLOUDY    56  52  86 SE7       30.19F
BARKSDALE AFB  CLOUDY    56  53  91 SE8       30.20F
DTN SHREVEPORT LGT RAIN  56  50  80 SE8       30.19F

$$

LAZ014-016-220900-
NORTHEAST LOUISIANA

CITY           SKY/WX    TMP DP  RH WIND       PRES   REMARKS
MONROE         CLOUDY    60  51  72 S5        30.26S
TALLULAH       CLOUDY    55  47  74 CALM      30.27S

$$




USA.gov is the U.S. government's official web portal to all federal, state and local government web resources and services.